Current weather by "City, St" or "zip code"  
 

Current Conditions: Anderson, Anderson County Airport, SC

Fair


71.0 F

Last Updated on Oct 29 2020, 8:56 pm EDT
Humidity: 79%
Wind Speed: SW 12.7 mph
Barometer 29.59 in
Dewpoint: 64.0 F
Visibility: 10.00 mi
Precip: --
Heat Index: NA
Wind Chill: NA
Current conditions at:

Anderson, Anderson County Airport, SC (KAND)

Lat: 34.49778 Lon: 82.70972

Local Radar Image active severe weather and emergency alerts image image weather storm and storm spotter reports image weather observation monitoring service image
Local
Radar
Active
Alerts
Storm Reports Obs
Monitoring

Sign-up For Email & Text Message Weather Alert Notification Services



Advertise Here

Observation History for Anderson, Anderson County Airport, SC


Time Wind
(mph)
Vis
(mi)
Weather Precip (in) Temperature (F) Relative
Humidity
Wind
Chill
(F)
Heat
Index
(F)
Pressure
Air Dwpt altimeter
(in)
sea level
(mb)
Rmks
8:56 pm EDT SW 12.7 10.00 Fair -- 71.0 64.0 79% NA NA 29.59 1001.1
7:56 pm EDT SW 4.6 10.00 Fair -- 69.0 66.9 93% NA NA 29.58 1000.6
6:56 pm EDT SW 8.1 10.00 Fair 00.56 71.0 66.9 87% NA NA 29.58 1000.7
5:56 pm EDT SW 10.4 7.00 Light Rain 00.02 78.0 68.0 71% NA NA 29.58 1000.8
4:56 pm EDT SW 15.0 G 27.6 10.00 Partly Cloudy -- 81.0 66.9 62% NA 83 29.59 1000.9
3:56 pm EDT SW 13.8 10.00 A Few Clouds -- 83.0 66.9 59% NA 86 29.61 1001.5
2:56 pm EDT SW 19.6 G 26.5 10.00 Mostly Cloudy -- 81.0 66.9 62% NA 83 29.63 1002.4
1:56 pm EDT SW 12.7 G 25.3 10.00 Overcast -- 81.0 66.9 62% NA 83 29.66 1003.4
12:56 pm EDT SW 16.1 10.00 Mostly Cloudy -- 80.0 69.1 69% NA 83 29.69 1004.4
11:56 am EDT SW 20.7 G 29.9 10.00 Overcast and Breezy -- 77.0 70.0 79% NA NA 29.69 1004.4
10:56 am EDT SW 17.3 G 26.5 9.00 Light Rain Trace 74.0 71.1 91% NA NA 29.69 1004.6
9:56 am EDT SW 24.2 G 28.8 7.00 Light Rain and Breezy -- 75.0 70.0 84% NA NA 29.68 1004.2
8:56 am EDT S 29.9 G 41.4 10.00 Overcast and Windy Trace 74.0 70.0 88% NA NA 29.62 1002.1
7:56 am EDT S 27.6 G 48.3 10.00 Light Rain and Windy 00.01 73.0 69.1 87% NA NA 29.59 1001.1
6:56 am EDT S 34.5 G 47.2 10.00 Overcast and Windy 00.04 74.0 69.1 85% NA NA 29.53 999.2
5:56 am EDT SE 20.7 G 29.9 9.00 Rain and Breezy -- 73.0 70.0 90% NA NA 29.62 1002.1
4:56 am EDT SE 10.4 G 23.0 6.00 Light Rain Fog/Mist 00.07 72.0 70.0 94% NA NA 29.72 1005.5
3:56 am EDT SE 11.5 10.00 Overcast -- 73.0 69.1 87% NA NA 29.78 1007.7
1:56 am EDT S 10.4 10.00 Overcast -- 72.0 69.1 91% NA NA 29.88 1010.9
12:56 am EDT S 13.8 G 21.9 10.00 Overcast -- 72.0 69.1 91% NA NA 29.90 1011.6
11:56 pm EDT SE 9.2 10.00 Overcast -- 71.0 69.1 94% NA NA 29.92 1012.4
10:56 pm EDT SE 6.9 9.00 Overcast Trace 70.0 69.1 97% NA NA 29.95 1013.3
9:56 pm EDT E 6.9 6.00 Fog/Mist -- 70.0 68.0 93% NA NA 29.97 1014.0
8:56 pm EDT E 5.8 7.00 Overcast -- 70.0 68.0 93% NA NA 29.98 1014.6

Regional Weather Observation


Pickens County Airport, SC (KLQK)

Light Rain and Windy
71.0 F

Anderson, Anderson County Airport, SC (KAND)

Fair
71.0 F

Greenville-Donaldson Center Airport, SC (KGYH)

Fair
68.0 F

Greenville Downtown Airport, SC (KGMU)

Fair
73.0 F

Greer, Greenville-Spartanburg Airport, SC (KGSP)

Fair
69.0 F

Greenwood, Greenwood County Airport, SC (KGRD)

Heavy Rain Fog/Mist
70.0 F